DateTimeUTC,F1_A11,F1_S11,BsB_S11,BsG_S11,BsR_S11,BbsB_S11,BbsG_S11,BbsR_S11,BaB_A11,BaG_A11,BaR_A11,Tu_S11,T_S11,Uu_S11,U_S11,P_S11,T1_A11
2021-12-17T11:00:00Z,00000200,21000000,,,,,,,-000.42,-000.38,0000.36,19.5,26.4,,00.0,0645.4,31.1
2021-12-17T11:01:00Z,00000200,21000000,,,,,,,-000.05,0000.06,-000.33,19.4,26.4,,00.0,0645.4,31.1
2021-12-17T11:02:00Z,00000200,21000000,,,,,,,0000.04,-000.06,0000.14,19.4,26.4,,00.0,0645.4,31.1
2021-12-17T11:03:00Z,00000200,61000000,,,,,,,-000.13,-000.11,-000.21,19.4,26.4,,00.0,0645.4,31.0
2021-12-17T11:04:00Z,00000200,41000000,0000.34,0000.30,0000.10,-000.25,0000.27,0000.16,-000.39,-000.45,-000.24,19.3,26.1,,00.0,0646.3,31.0
2021-12-17T11:05:00Z,00000200,01000000,0000.52,0000.56,0000.22,-000.49,0000.00,0000.27,-000.23,-000.47,0000.08,19.3,26.1,,00.0,0646.4,31.0
2021-12-17T11:06:00Z,00000200,01000000,-000.04,0000.24,-000.27,-000.26,0000.14,0000.11,0000.54,0000.20,0000.32,19.3,26.0,,00.0,0646.4,31.0
2021-12-17T11:07:00Z,00000200,01000000,0000.33,0000.52,0000.10,-000.59,0000.41,0000.15,-000.38,0000.28,-000.43,19.3,26.0,,00.0,0646.4,31.0
2021-12-17T11:08:00Z,00000200,01000000,0000.30,0000.04,0000.32,-000.32,0000.16,0000.15,0000.18,0000.01,0000.30,19.4,26.0,,00.0,0646.5,31.0
2021-12-17T11:09:00Z,00000200,01000000,0000.40,-000.18,0000.07,0000.27,0000.31,0000.20,0000.13,0000.27,-000.00,19.4,26.0,,00.0,0646.5,31.1
2021-12-17T11:10:00Z,00000200,01000000,0000.47,0000.19,0000.11,0000.20,0000.10,-000.01,-000.19,-000.05,0000.27,19.5,26.0,,00.0,0646.5,31.1
2021-12-17T11:11:00Z,00000200,01000000,0000.69,0000.50,0000.02,-000.10,0000.17,0000.33,0000.15,-000.36,-000.09,19.5,26.1,,00.0,0646.5,31.1
2021-12-17T11:12:00Z,00000200,01000000,0000.78,0000.19,-000.04,-000.25,-000.03,-000.02,-000.14,0000.23,-000.25,19.6,26.1,,00.0,0646.5,31.1
2021-12-17T11:13:00Z,00000200,01000000,0000.50,0000.17,0000.19,-000.72,0000.20,0000.02,0000.05,-000.11,0000.35,19.6,26.1,,00.0,0646.6,31.1
2021-12-17T11:14:00Z,00000200,01000000,0000.38,0000.06,0000.41,-000.35,0000.17,0000.06,0000.13,0000.15,-000.21,19.6,26.1,,00.0,0646.6,31.1
2021-12-17T11:15:00Z,00000200,01000000,0000.18,0000.35,0000.03,-000.18,-000.04,0000.16,-000.17,-000.05,-000.18,19.5,26.1,,00.0,0646.6,31.1
2021-12-17T11:16:00Z,00000200,01000000,0000.28,0000.24,0000.17,-000.30,0000.36,-000.14,-000.30,0000.00,0000.07,19.5,26.1,,00.0,0646.6,31.1
2021-12-17T11:17:00Z,00000200,01000000,0000.08,0000.20,0000.07,-000.66,0000.26,0000.41,-000.19,0000.21,-000.22,19.4,26.0,,00.0,0646.6,31.0
2021-12-17T11:18:00Z,00000200,01000000,0000.84,0000.28,-000.10,0000.38,0000.19,0000.32,0000.22,-000.53,0000.11,19.3,26.0,,00.0,0646.7,31.0
2021-12-17T11:19:00Z,00000200,01000000,0000.40,0000.26,0000.05,-000.10,0000.21,-000.01,-000.21,-000.14,-000.22,19.3,26.0,,00.0,0646.6,31.0
2021-12-17T11:20:00Z,00000200,01000000,0000.51,0000.05,0000.09,-000.16,0000.25,-000.05,0000.02,-000.17,-000.01,19.2,25.9,,00.0,0646.7,31.0
2021-12-17T11:21:00Z,00000200,01000000,-000.37,-000.15,-000.50,0000.03,0000.02,-000.22,-000.17,0000.03,-000.10,19.2,25.9,,00.0,0646.7,31.0
2021-12-17T11:22:00Z,00000200,01000000,0000.45,0000.32,0000.10,-000.03,0000.05,-000.14,0000.19,-000.23,0000.01,19.2,25.9,,00.0,0646.8,31.0
2021-12-17T11:23:00Z,00000200,01000000,0000.62,0000.23,-000.04,-000.38,0000.31,-000.02,0000.02,0000.32,0000.17,19.3,25.9,,00.0,0646.8,31.0
2021-12-17T11:24:00Z,00000200,01000000,0000.54,0000.20,0000.17,-000.42,0000.12,0000.15,-000.05,0000.11,0000.03,19.3,25.9,,00.0,0646.8,31.0
2021-12-17T11:25:00Z,00000200,01000000,0000.27,0000.07,0000.26,-000.25,0000.40,0000.65,-000.24,0000.00,-000.07,19.4,25.9,,00.0,0646.9,31.1
2021-12-17T11:26:00Z,00000200,01000000,-000.05,0000.21,0000.01,-000.44,0000.16,0000.16,0000.28,-000.04,0000.03,19.4,26.0,,00.0,0646.9,31.1
2021-12-17T11:27:00Z,00000200,01000000,0000.09,0000.15,0000.13,-000.29,0000.21,0000.07,-000.18,-000.34,0000.00,19.5,26.0,,00.0,0646.9,31.1
2021-12-17T11:28:00Z,00000200,01000000,0000.07,-000.00,0000.25,-000.27,0000.14,0000.23,0000.11,0000.07,-000.14,19.5,26.0,,00.0,0646.9,31.1
2021-12-17T11:29:00Z,00000200,01000000,0000.38,0000.10,0000.23,-000.02,0000.37,-000.06,-000.27,0000.01,-000.22,19.6,26.1,,00.0,0646.9,31.1
2021-12-17T11:30:00Z,00000200,01000000,0000.17,0000.04,0000.25,-000.44,0000.26,0000.02,0000.23,0000.11,0000.49,19.5,26.1,,00.0,0646.9,31.1
2021-12-17T11:31:00Z,00000200,01000000,-000.08,-000.00,0000.07,-000.28,0000.36,-000.05,-000.05,0000.26,-000.02,19.5,26.0,,00.0,0646.9,31.1
2021-12-17T11:32:00Z,00000200,01000000,0000.08,0000.36,0000.27,0000.63,0000.15,0000.10,0000.10,-000.10,-000.08,19.4,26.0,,00.0,0646.9,31.0
2021-12-17T11:33:00Z,00000200,01000000,0000.77,0000.39,0000.11,-000.44,0000.07,0000.11,0000.25,-000.09,0000.13,19.3,26.0,,00.0,0646.9,31.0
2021-12-17T11:34:00Z,00000200,01000000,0000.59,-000.07,-000.12,0000.29,0000.11,-000.02,-000.05,-000.01,-000.24,19.3,25.9,,00.0,0646.9,31.0
2021-12-17T11:35:00Z,00000200,01000000,0000.64,0000.61,-000.24,-000.12,0000.18,0000.47,-000.09,-000.13,0000.19,19.2,25.9,,00.0,0646.9,31.0
2021-12-17T11:36:00Z,00000200,01000000,0000.22,0000.20,-000.04,-000.55,0000.31,0000.28,-000.22,0000.27,-000.03,19.2,25.9,,00.0,0646.9,31.0
2021-12-17T11:37:00Z,00000200,01000000,-000.32,0000.07,0000.21,-000.11,0000.21,0000.36,0000.41,0000.07,-000.04,19.2,25.9,,00.0,0647.0,31.0
2021-12-17T11:38:00Z,00000200,01000000,0000.31,-000.14,-000.20,-000.22,0000.33,0000.07,-000.23,0000.26,0000.11,19.3,25.9,,00.0,0647.0,31.0
2021-12-17T11:39:00Z,00000200,01000000,0000.22,0000.41,0000.20,-000.53,0000.17,0000.32,0000.38,0000.01,0000.26,19.3,25.9,,00.0,0647.0,31.0
2021-12-17T11:40:00Z,00000200,01000000,0000.41,0000.28,-000.01,-000.17,0000.01,0000.02,0000.15,-000.08,-000.00,19.4,25.9,,00.0,0647.0,31.0
2021-12-17T11:41:00Z,00000200,01000000,0000.35,0000.09,0000.22,-000.10,0000.31,0000.06,-000.15,0000.23,0000.13,19.4,25.9,,00.0,0647.0,31.1
2021-12-17T11:42:00Z,00000200,01000000,-000.10,0000.09,-000.10,-000.03,0000.26,0000.29,-000.20,-000.00,-000.33,19.5,26.0,,00.0,0647.1,31.1
2021-12-17T11:43:00Z,00000200,01000000,-000.21,0000.40,-000.17,-000.09,-000.12,0000.14,0000.49,0000.01,0000.57,19.5,26.0,,00.0,0647.0,31.1
2021-12-17T11:44:00Z,00000200,01000000,0000.21,0000.12,0000.20,-000.03,0000.39,0000.33,0000.05,0000.09,-000.20,19.6,26.0,,00.0,0647.1,31.1
2021-12-17T11:45:00Z,00000200,01000000,0000.99,0000.17,0000.15,-000.92,0000.07,0000.34,-000.19,0000.05,0000.16,19.6,26.1,,00.0,0647.0,31.1
2021-12-17T11:46:00Z,00000200,01000000,-000.37,0000.22,0000.29,-001.20,0000.17,0000.24,0000.28,-000.03,0000.10,19.6,26.1,,00.0,0647.0,31.1
2021-12-17T11:47:00Z,00000200,01000000,0000.43,0000.33,0000.26,-000.51,0000.31,0000.06,0000.20,-000.11,-000.21,19.5,26.0,,00.0,0647.0,31.1
2021-12-17T11:48:00Z,00000200,01000000,-000.19,0000.02,-000.33,0000.05,0000.27,-000.17,-000.35,-000.04,0000.13,19.4,26.0,,00.0,0647.0,31.0
2021-12-17T11:49:00Z,00000200,01000000,0000.82,0000.45,0000.08,-000.43,0000.35,-000.19,-000.31,-000.39,-000.38,19.3,25.9,,00.0,0647.0,31.0
2021-12-17T11:50:00Z,00000200,01000000,0000.21,0000.31,0000.49,-000.71,0000.24,0000.01,0000.14,0000.18,0000.10,19.3,25.9,,00.0,0647.1,31.0
2021-12-17T11:51:00Z,00000200,01000000,0000.85,0000.25,0000.05,-000.65,0000.34,0000.23,0000.06,0000.02,-000.30,19.3,25.9,,00.0,0647.1,31.0
2021-12-17T11:52:00Z,00000200,01000000,0000.93,0000.46,-000.11,-000.05,0000.28,-000.11,-000.02,0000.29,0000.45,19.3,25.9,,00.0,0647.1,31.0
2021-12-17T11:53:00Z,00000200,01000000,0000.30,0000.20,0000.16,0000.22,0000.05,-000.26,-000.08,-000.23,0000.07,19.3,25.9,,00.0,0647.1,31.0
2021-12-17T11:54:00Z,00000200,01000000,0000.14,0000.17,-000.06,-000.04,0000.24,0000.04,0000.13,0000.00,-000.35,19.4,25.9,,00.0,0647.2,31.0
2021-12-17T11:55:00Z,00000200,01000000,0000.03,0000.02,0000.28,0000.14,0000.23,-000.20,0000.13,0000.27,0000.35,19.4,26.0,,00.0,0647.2,31.1
2021-12-17T11:56:00Z,00000200,01000000,-000.27,0000.02,0000.24,-000.51,0000.35,0000.19,-000.06,0000.05,-000.32,19.5,26.0,,00.0,0647.2,31.1
2021-12-17T11:57:00Z,00000200,41000000,,,,,,,0001.26,0001.24,0000.97,19.6,26.0,,00.0,0647.2,31.1
2021-12-17T11:58:00Z,00000200,61000000,,,,,,,-000.69,-000.42,-000.22,19.3,26.2,,00.0,0646.3,31.1
2021-12-17T11:59:00Z,00000200,21000000,,,,,,,-000.60,-000.52,-000.31,19.3,26.3,,00.0,0646.3,31.1
